CZ-6A DEB, 54532

Orbit data source: Space-Track

CZ-6A DEB, 54532 is space debris in SSO originally from a launch on Fri, 11 Nov 2022 UTC launched from the Taiyaun Space Center, China (TSC). Debris objects in space refer to the collection of defunct objects orbiting the Earth. Examples of debris include non-operational satellites, rocket bodies, and fragments generated from explosions, collisions, or faulty payload assembly.

Loading next visibility...
Identifier
54532, 2022-151KL
Orbit
SSO
Country
Flag of CNCN / PRC
Related business
Manufacturer
SAST
Mission
Spacecraft
Bus & Motor
Unknown
Mass
Unknown
Launch date (UTC)
2022-11-11 (4 years ago)
Launch vehicle
Unknown
Launch site
Taiyaun Space Center, China (TSC)
Object type
Payload
Rocket body
Debris
Shape & HBR
Unknown shape, 0.3 m
Radar Cross Section
Medium (>0.1 m² and <1 m²)

Expand to show TLE details & history
Last TLE update: 1 day ago

TLE from 1 day ago
0 CZ-6A DEB
1 54532U 22151KL  26206.11532896  .00001138  00000-0  28468-3 0  9995
2 54532  98.5964 263.8730 0126684 177.9211 182.2535 14.48817894195067
Epoch: 2026-07-25T02:46Z
TLE epoch observation values (Epoch: 2026-07-25T02:46:04.422Z)
Latitude
-0°
Longitude
-80.47767°
Altitude
822.463 km
Speed
7.395 km/s
True Right ascension
17h 35m 29s
True Declination
0° 00' 00"
Sunlit
Object was in full shadow at epoch
Visualization orbit readout
Latitude
Unknown
Longitude
Unknown
Altitude
Unknown
Speed
Unknown
Apparent Right ascension
Unknown
Apparent Declination
Unknown
Sunlit
N/A
Visualization observer readout
Local Sidereal Time
16:52:51
Azimuth
Unknown
Elevation
Unknown
Doppler factor
Unknown
Orbital elements
Apogee altitude
816.632 km
Perigee altitude
636.62 km
Semi-major axis
7,104.763 km
Eccentricity
0.01267
Inclination
98.5964°
RAAN
263.873°
Arg. of periapsis
177.9211°
True anomaly
182.19731°
Mean anomaly
182.2535°
Eccentric anomaly
182.22532°
Mean motion
3.62426 °/min
Orbital period
99.33 mins
BSTAR
0.00028468
Loading maneuver chart data...
Computing Atmospheric mass density...

Documentation

Showing up to 5 results
|